Погода в Радовище

Россия / Орловская область     53°16′32″N   35°19′27″E
темп.,
°C
ветер,
м/с
пор.,
м/с
влажн.,
%
обл.,
%
осадки,
мм/ч
давл.,
гПа
погр.,
м
18 января, пн
пн1800:00−22в229876 0.0 101920
03:00−23всв129950 0.0 101920
06:00−22всв2297100 0.0 101948
09:00−21всв1297100 0.0 102047
12:00−18в1291100 0.0 1021273
15:00−17ссв1190100 0.0 1019323
18:00−18всв1198100 0.0 102021
21:00−18юв1198100 0.3 102029
19 января, вт
вт1900:00−19юз009897 0.1 102020
03:00−22зсз0110093 0.1 102020
06:00−20з119993 0.1 102020
09:00−20з119897 0.1 102021
12:00−17зсз1292100 0.1 1020242
15:00−15зсз2392100 0.1 1019357
18:00−17зсз229798 0.1 101922
21:00−18з239899 0.1 102050
20 января, ср
ср2000:00−20зсз229960 0.0 102020
03:00−21з239930 0.0 102122
06:00−22з22980 0.0 102120
09:00−22зюз12970 0.0 102220
12:00−16юз23900 0.0 1023149
15:00−15ююз24910 0.0 1022174
18:00−18ю23940 0.0 102337
21:00−18ю36930 0.0 1023100
21 января, чт
чт2100:00−18ю49920 0.0 1022172
03:00−16ю412902 0.0 1021248
06:00−14ю5139434 0.0 1019303
09:00−11ююз6139467 0.2 1017425
12:00−8ююз61294100 0.9 1016521
15:00−4ююз71494100 1.4 1014563
18:00−1юз61395100 0.7 1013617
21:00−1юз61392100 1.1 1012539
22 января, пт
пт2200:00−2юз61393100 0.0 1012440
03:00−3юз5129598 0.0 1013415
06:00−3юз51196100 0.0 1012379
09:00−4юз499599 0.0 1012260
12:000юз499365 0.0 1012343
15:000ююз4119478 0.0 1012374
18:00−1ю4119596 0.0 1011297
21:00−1ююз5119497 0.0 1011373